[[{"header":{"parameterUnit":"m.s-1","parameterCategory":1,"la1":30.2991,"la2":30.254,"lo1":-89.0895,"lo2":-89.0444,"dy":0.0017,"dx":0.0017,"nx":28,"ny":28,"refTime":"2024-12-24T09:00:00:Z","depth":0,"parameterNumber":2,"parameterNumberName":"U-component_of_WINDS"},"data":[0,0,0,0,0,0,0,0,0,0,0,0,0,0,0,0,0,0,0,0,0,0,0,0,0,0,0,0,0,0,0,0,0,0,0,0,0,0,0,0,0,0,0,0,0,0,0,0,0,0,0,0,0,0,0,0,0,0,-5.2686,-5.2686,0,-5.2668,-5.2668,-5.2668,-5.2489,-5.2485,-5.248,-5.2476,-5.2461,-5.2465,-5.2468,0,0,0,0,0,0,0,0,0,0,0,0,0,-5.2569,-5.2572,-5.2686,-5.2686,-5.2686,-5.2668,-5.2668,-5.2667,-5.249,-5.2485,-5.2479,-5.2474,-5.246,-5.2464,-5.2469,0,0,0,0,0,0,0,0,0,0,0,0,0,-5.2592,-5.2573,-5.2686,-5.2595,-5.2586,-5.2668,-5.2668,-5.2667,-5.2491,-5.2485,-5.2478,-5.2472,-5.2458,-5.2464,-5.2469,-5.2638,0,0,-5.2486,-5.2489,0,0,0,0,0,0,0,0,-5.2591,-5.2597,-5.2608,-5.2601,-5.2592,-5.2574,-5.2621,-5.2658,-5.2493,-5.2528,-5.2476,-5.2468,-5.2504,-5.2506,-5.2517,-5.2637,-5.2637,-5.2487,-5.249,-5.2493,-5.2494,0,0,0,0,0,0,0,-5.259,-5.2597,-5.2679,-5.2609,-5.2599,-5.2555,-5.2551,-5.2627,-5.2554,-5.2524,-5.2511,-5.2511,-5.2498,-5.2512,-5.2515,-5.2636,-5.2487,-5.2492,-5.2495,-5.2498,-5.2894,-5.29,0,0,0,0,0,0,-5.2601,-5.2597,-5.2679,-5.2678,-5.2575,-5.2563,-5.2558,-5.2587,-5.2552,-5.2541,-5.2517,-5.2503,-5.2506,-5.2509,-5.2514,-5.2709,-5.2493,-5.2498,-5.2501,-5.2887,-5.2895,-5.2903,0,0,0,0,0,0,-5.2599,-5.261,-5.268,-5.2634,-5.2639,-5.2572,-5.2605,-5.259,-5.2603,-5.2547,-5.2533,-5.2544,-5.2501,-5.2506,-5.2608,-5.2706,-5.2501,-5.2506,-5.2878,-5.2889,-5.2899,-5.3101,0,0,0,0,0,0,-5.2596,-5.261,-5.2673,-5.2637,-5.2643,-5.2775,-5.2611,-5.2594,-5.2613,-5.2594,-5.2569,-5.2558,-5.2496,-5.2601,-5.2614,-5.271,-5.251,-5.2869,-5.2883,-5.2896,-5.3085,-5.3117,-5.3145,0,0,0,0,0,-5.2593,-5.2731,-5.2677,-5.2688,-5.272,-5.278,-5.2784,-5.2708,-5.2622,-5.2685,-5.2648,-5.2559,-5.2693,-5.2613,-5.2626,-5.2726,-5.2863,-5.2879,-5.2895,-5.3072,-5.3111,-5.3144,0,0,0,0,0,0,-5.2782,-5.2725,-5.2664,-5.2795,-5.2794,-5.275,-5.2827,-5.2752,-5.2776,-5.2758,-5.2664,-5.266,-5.2777,-5.2761,-5.2672,-5.2887,-5.2762,-5.2782,-5.2893,-5.2929,-5.2958,-5.296,-5.2515,0,0,0,0,0,-5.2839,-5.2893,-5.284,-5.296,-5.2963,-5.2896,-5.2919,-5.2861,-5.2856,-5.2855,-5.2826,-5.2826,-5.2868,-5.2898,-5.2933,-5.3082,-5.3074,-5.3157,-5.3187,-5.3211,-5.323,-5.3307,-5.3343,-5.2956,-5.2956,-5.2955,0,0,-5.2958,-5.2933,-5.2973,-5.2998,-5.299,-5.3048,-5.2897,-5.2964,-5.3006,-5.2866,-5.296,-5.2939,-5.2932,-5.3059,-5.3113,-5.3049,-5.3335,-5.3232,-5.3252,-5.3256,-5.3327,-5.3364,-5.3397,-5.2967,-5.2965,-5.2963,0,0,-5.3203,-5.319,-5.3288,-5.3284,-5.3273,-5.3227,-5.3252,-5.3219,-5.32,-5.3292,-5.3188,-5.3237,-5.3311,-5.3311,-5.332,-5.3565,-5.3484,-5.358,-5.3735,-5.3812,-5.3842,-5.3869,-5.3957,-5.3989,-5.3598,-5.3598,-5.3599,0,-5.3352,-5.3434,-5.3349,-5.3424,-5.3438,-5.3312,-5.3412,-5.3411,-5.3414,-5.3427,-5.3356,-5.3445,-5.3432,-5.3557,-5.3616,-5.3628,-5.3653,-5.3582,-5.3845,-5.387,-5.3894,-5.3977,-5.401,-5.361,-5.3609,-5.3607,-5.3606,0,-5.3618,-5.3677,-5.3758,-5.3762,-5.3785,-5.3873,-5.3801,-5.3836,-5.3775,-5.3738,-5.3834,-5.3813,-5.3842,-5.3867,-5.381,-5.3984,-5.3945,-5.3861,-5.3734,-5.3944,-5.402,-5.4051,-5.3627,-5.3622,-5.3619,-5.3616,0,0,-5.3983,-5.3938,-5.397,-5.397,-5.3949,-5.3993,-5.4075,-5.4102,-5.4133,-5.4139,-5.4205,-5.4271,-5.4192,-5.4203,-5.4144,-5.4212,-5.4408,-5.4119,-5.4117,-5.4173,-5.4599,-5.4662,-5.47,-5.4353,-5.4359,-5.4363,-5.4599,0,-5.4219,-5.4355,-5.428,-5.4427,-5.448,-5.4361,-5.4431,-5.4427,-5.4394,-5.4435,-5.4398,-5.4446,-5.4339,-5.4345,-5.4406,-5.4371,-5.4492,-5.4353,-5.4415,-5.4418,-5.4421,-5.474,-5.4808,-5.5031,-5.4628,-5.4633,-5.4637,0,-5.4513,-5.4531,-5.4682,-5.465,-5.467,-5.4735,-5.4753,-5.4794,-5.4786,-5.4758,-5.477,-5.4695,-5.4773,-5.4648,-5.4755,-5.4662,-5.4683,-5.4669,-5.4676,-5.4679,-5.4541,-5.4752,-5.51,-5.5134,-5.4683,-5.4679,-5.4676,0,-5.4765,-5.4826,-5.4924,-5.4928,-5.4894,-5.4942,-5.493,-5.4916,-5.4937,-5.4954,-5.4966,-5.4993,-5.5008,-5.503,-5.4965,-5.4879,-5.5081,-5.495,-5.506,-5.5062,-5.5108,-5.5106,-5.5465,-5.5122,-5.5121,-5.512,-5.512,0,-5.5037,-5.5134,-5.5036,-5.5097,-5.5202,-5.5116,-5.5224,-5.5199,-5.5187,-5.5241,-5.514,-5.5194,-5.5103,-5.5148,-5.5097,-5.5193,-5.5201,-5.518,-5.5166,-5.519,-5.5192,-5.5202,-5.5185,-5.5129,-5.5127,-5.5126,-5.5124,0,-5.5335,-5.5274,-5.5373,-5.5332,-5.5324,-5.5404,-5.5369,-5.5424,-5.5383,-5.5453,-5.5465,-5.5402,-5.5449,-5.5386,-5.5427,-5.5392,-5.5525,-5.5487,-5.5527,-5.5516,-5.563,-5.562,-5.6008,-5.6054,-5.5682,-5.5686,-5.5689,0,-5.5513,-5.5585,-5.5551,-5.558,-5.5573,-5.5621,-5.5641,-5.5559,-5.5585,-5.5582,-5.5638,-5.5676,-5.5702,-5.5783,-5.5742,-5.5773,-5.5735,-5.5869,-5.5739,-5.5761,-5.5737,-5.5734,-5.574,-5.5895,-5.59,-5.5904,-5.5906,0,-5.5835,-5.5801,-5.5833,-5.5857,-5.5883,-5.5898,-5.5905,-5.5934,-5.5848,-5.5882,-5.5929,-5.5949,-5.599,-5.603,-5.605,-5.6038,-5.596,-5.5948,-5.5975,-5.6,-5.602,-5.6011,-5.56,-5.5939,-5.5936,-5.5933,-5.5932,-5.593,-5.6078,-5.6136,-5.6122,-5.6162,-5.6158,-5.6167,-5.6216,-5.6181,-5.6218,-5.6244,-5.6194,-5.6253,-5.6244,-5.6262,-5.626,-5.6305,-5.6247,-5.6287,-5.6296,-5.6308,-5.6325,-5.6013,-5.6309,-5.6308,-5.6307,-5.6306,-5.6305,0,-5.6395,-5.6379,-5.6417,-5.6429,-5.6461,-5.6382,-5.6385,-5.6417,-5.647,-5.6467,-5.6495,-5.6549,-5.6586,-5.6548,-5.6579,-5.6623,-5.6587,-5.6634,-5.663,-5.6628,-5.6375,-5.6349,-5.6662,-5.6662,-5.6662,-5.6662,-5.6662,-5.6662,-5.6563,-5.6657,-5.6621,-5.6713,-5.6696,-5.6753,-5.6761,-5.6769,-5.6766,-5.683,-5.6861,-5.6835,-5.6818,-5.6847,-5.6878,-5.6866,-5.6882,-5.6942,-5.6917,-5.6681,-5.6646,-5.6613,-5.6587,-5.6946,-5.6946,-5.7166,-5.7168,-5.717]},{"header":{"parameterUnit":"m.s-1","parameterCategory":1,"la1":30.2991,"la2":30.254,"lo1":-89.0895,"lo2":-89.0444,"dy":0.0017,"dx":0.0017,"nx":28,"ny":28,"refTime":"2024-12-24T09:00:00:Z","depth":0,"parameterNumber":3,"parameterNumberName":"V-component_of_WINDS"},"data":[0,0,0,0,0,0,0,0,0,0,0,0,0,0,0,0,0,0,0,0,0,0,0,0,0,0,0,0,0,0,0,0,0,0,0,0,0,0,0,0,0,0,0,0,0,0,0,0,0,0,0,0,0,0,0,0,0,0,-1.0755,-1.0756,0,-1.0818,-1.0819,-1.082,-1.0843,-1.0843,-1.0843,-1.0843,-1.0907,-1.0909,-1.091,0,0,0,0,0,0,0,0,0,0,0,0,0,-1.0653,-1.0655,-1.0755,-1.0756,-1.0757,-1.0818,-1.0819,-1.082,-1.0843,-1.0843,-1.0843,-1.0843,-1.0906,-1.0908,-1.0911,0,0,0,0,0,0,0,0,0,0,0,0,0,-1.0705,-1.0656,-1.0755,-1.0776,-1.0778,-1.0818,-1.0819,-1.082,-1.0843,-1.0843,-1.0843,-1.0842,-1.0905,-1.0908,-1.0911,-1.0934,0,0,-1.092,-1.0921,0,0,0,0,0,0,0,0,-1.0702,-1.0709,-1.0772,-1.0775,-1.0777,-1.0823,-1.0806,-1.0858,-1.0843,-1.0819,-1.0843,-1.0842,-1.0879,-1.0884,-1.0896,-1.0937,-1.094,-1.092,-1.0922,-1.0923,-1.0924,0,0,0,0,0,0,0,-1.0698,-1.0706,-1.078,-1.0773,-1.0776,-1.0781,-1.0788,-1.0816,-1.085,-1.0821,-1.0823,-1.083,-1.088,-1.0894,-1.0898,-1.0941,-1.092,-1.0922,-1.0924,-1.0925,-1.1001,-1.1002,0,0,0,0,0,0,-1.0692,-1.0703,-1.0778,-1.0782,-1.0738,-1.0783,-1.0791,-1.0808,-1.0849,-1.0855,-1.083,-1.0831,-1.0889,-1.0895,-1.09,-1.0929,-1.0923,-1.0925,-1.0927,-1.1001,-1.1002,-1.1002,0,0,0,0,0,0,-1.0689,-1.0698,-1.0776,-1.0743,-1.0753,-1.0785,-1.0804,-1.081,-1.0823,-1.0856,-1.0862,-1.0838,-1.0889,-1.0896,-1.0925,-1.0932,-1.0927,-1.0929,-1.1001,-1.1001,-1.1002,-1.0987,0,0,0,0,0,0,-1.0686,-1.0697,-1.0707,-1.0743,-1.0755,-1.08,-1.0805,-1.0811,-1.0828,-1.0829,-1.0865,-1.0871,-1.0889,-1.0921,-1.0928,-1.0936,-1.0932,-1.1,-1.1001,-1.1002,-1.0987,-1.0987,-1.0987,0,0,0,0,0,-1.0683,-1.0701,-1.0708,-1.0716,-1.0768,-1.08,-1.0807,-1.0828,-1.0828,-1.0838,-1.0859,-1.087,-1.093,-1.0923,-1.0932,-1.094,-1.1,-1.1001,-1.1002,-1.0987,-1.0987,-1.0987,0,0,0,0,0,0,-1.0666,-1.0706,-1.0714,-1.0745,-1.0769,-1.0804,-1.0818,-1.0828,-1.0852,-1.0853,-1.0878,-1.0885,-1.0912,-1.0929,-1.0921,-1.0964,-1.0965,-1.0968,-1.0952,-1.0952,-1.0952,-1.0947,-1.0934,0,0,0,0,0,-1.0665,-1.0689,-1.0723,-1.0747,-1.0758,-1.0785,-1.08,-1.0814,-1.084,-1.0851,-1.0874,-1.0898,-1.0922,-1.0938,-1.0962,-1.0989,-1.0997,-1.0999,-1.0999,-1.0999,-1.1001,-1.1014,-1.1016,-1.1004,-1.1004,-1.1004,0,0,-1.0666,-1.069,-1.0704,-1.0744,-1.0764,-1.0787,-1.0794,-1.0818,-1.0835,-1.0854,-1.0883,-1.09,-1.0929,-1.0956,-1.097,-1.0971,-1.1005,-1.1,-1.0999,-1.1002,-1.1015,-1.1016,-1.1017,-1.1005,-1.1005,-1.1005,0,0,-1.0677,-1.0699,-1.072,-1.074,-1.077,-1.0788,-1.0792,-1.0826,-1.0838,-1.0867,-1.0881,-1.0901,-1.0942,-1.0962,-1.0977,-1.0992,-1.1002,-1.0999,-1.0999,-1.1012,-1.1013,-1.1014,-1.1018,-1.102,-1.1001,-1.1001,-1.1001,0,-1.0673,-1.0709,-1.073,-1.0753,-1.0769,-1.0786,-1.0807,-1.0825,-1.0862,-1.0872,-1.0873,-1.0924,-1.0945,-1.0977,-1.098,-1.0992,-1.0998,-1.0996,-1.1011,-1.1012,-1.1013,-1.1018,-1.102,-1.1,-1.1,-1.1001,-1.1001,0,-1.0702,-1.0726,-1.0739,-1.0773,-1.0791,-1.0813,-1.0836,-1.0851,-1.0862,-1.0879,-1.0907,-1.0932,-1.0961,-1.0969,-1.0981,-1.1001,-1.1001,-1.1006,-1.1009,-1.1014,-1.1018,-1.102,-1.1,-1.1,-1.1,-1.1,0,0,-1.0707,-1.075,-1.0755,-1.0769,-1.0803,-1.0821,-1.0842,-1.087,-1.0882,-1.0906,-1.0924,-1.0957,-1.0961,-1.0978,-1.0992,-1.1004,-1.1012,-1.1007,-1.1008,-1.1007,-1.1035,-1.1031,-1.1033,-1.1019,-1.1019,-1.102,-1.1032,0,-1.0722,-1.0762,-1.078,-1.0812,-1.0833,-1.0848,-1.0866,-1.0888,-1.0904,-1.0923,-1.0941,-1.0963,-1.0968,-1.0978,-1.099,-1.1009,-1.1018,-1.1008,-1.1035,-1.1036,-1.1028,-1.1035,-1.1032,-1.1043,-1.1034,-1.1035,-1.1035,0,-1.0747,-1.0769,-1.0802,-1.0831,-1.084,-1.0857,-1.0882,-1.0901,-1.0925,-1.0935,-1.0953,-1.0966,-1.0988,-1.0987,-1.1017,-1.101,-1.1021,-1.1032,-1.1033,-1.1037,-1.1036,-1.1039,-1.1047,-1.1048,-1.1038,-1.1038,-1.1038,0,-1.0746,-1.0785,-1.0809,-1.0821,-1.0855,-1.0866,-1.0881,-1.0904,-1.0919,-1.0941,-1.095,-1.0974,-1.0987,-1.1005,-1.1024,-1.1022,-1.1051,-1.1053,-1.106,-1.1059,-1.1066,-1.1065,-1.1075,-1.1073,-1.1073,-1.1073,-1.1073,0,-1.0761,-1.0781,-1.0809,-1.0824,-1.0845,-1.0865,-1.0885,-1.0901,-1.0921,-1.0939,-1.0953,-1.0969,-1.0993,-1.1011,-1.1025,-1.1047,-1.1053,-1.1061,-1.1065,-1.106,-1.1059,-1.1069,-1.1068,-1.1074,-1.1073,-1.1073,-1.1073,0,-1.0765,-1.0784,-1.0812,-1.0841,-1.0848,-1.0863,-1.0887,-1.0902,-1.0917,-1.0939,-1.0945,-1.0969,-1.0991,-1.1011,-1.1041,-1.105,-1.1072,-1.1077,-1.1064,-1.1066,-1.1071,-1.107,-1.1088,-1.1091,-1.1087,-1.1087,-1.1087,0,-1.0774,-1.0789,-1.0819,-1.0831,-1.0845,-1.0866,-1.088,-1.0899,-1.0913,-1.094,-1.0951,-1.0974,-1.0994,-1.1028,-1.1048,-1.107,-1.1075,-1.108,-1.1079,-1.1073,-1.1075,-1.1074,-1.1075,-1.108,-1.108,-1.108,-1.108,0,-1.0787,-1.0795,-1.0816,-1.0838,-1.0855,-1.0874,-1.0894,-1.0903,-1.0925,-1.094,-1.0963,-1.0978,-1.1007,-1.1029,-1.1053,-1.1067,-1.1077,-1.108,-1.1082,-1.1078,-1.107,-1.1073,-1.1063,-1.1079,-1.1079,-1.108,-1.108,-1.108,-1.0793,-1.0806,-1.0829,-1.085,-1.0867,-1.0884,-1.0898,-1.0914,-1.0934,-1.0959,-1.0968,-1.0991,-1.1012,-1.1045,-1.1059,-1.1076,-1.1078,-1.1082,-1.1083,-1.1084,-1.1083,-1.1066,-1.1081,-1.1081,-1.1081,-1.1081,-1.1081,0,-1.0806,-1.0821,-1.0841,-1.0867,-1.0883,-1.089,-1.0911,-1.0924,-1.0943,-1.0962,-1.0981,-1.1005,-1.1026,-1.1047,-1.1069,-1.1078,-1.1083,-1.1083,-1.1083,-1.1086,-1.108,-1.1076,-1.1079,-1.1079,-1.1079,-1.1079,-1.1079,-1.1079,-1.0815,-1.0838,-1.0848,-1.0878,-1.0892,-1.0914,-1.0926,-1.0941,-1.0956,-1.0983,-1.1,-1.1013,-1.1032,-1.1055,-1.1074,-1.1079,-1.1087,-1.1085,-1.1092,-1.1087,-1.1087,-1.1087,-1.1082,-1.1087,-1.1087,-1.1096,-1.1096,-1.1096]}]]